[[{"header":{"parameterUnit":"m.s-1","parameterCategory":1,"la1":30.2992,"la2":30.254,"lo1":-89.0895,"lo2":-89.0443,"dy":0.0025,"dx":0.0025,"nx":19,"ny":19,"refTime":"2026-03-23T09:00:00:Z","depth":0,"parameterNumber":2,"parameterNumberName":"U-component_of_WINDS"},"data":[0,0,0,-3.081,-3.0811,-3.088,-3.088,-3.0981,-3.0982,0,0,0,0,0,0,0,0,0,0,0,-3.0798,-3.0799,-3.081,-3.0812,-3.088,-3.088,-3.0981,-3.0982,0,0,0,0,0,0,0,0,0,0,0,-3.0797,-3.0799,-3.08,-3.0812,-3.088,-3.088,-3.098,-3.0924,0,0,0,0,0,0,0,0,0,0,-3.0855,-3.0853,-3.0798,-3.08,-3.0812,-3.088,-3.088,-3.0921,-3.0927,-3.0955,0,-3.0983,0,-3.0984,-3.0989,-3.099,0,0,0,-3.0805,-3.0847,-3.0858,-3.08,-3.0813,-3.088,-3.0847,-3.0924,-3.0932,-3.0964,-3.0984,-3.0988,-3.0986,-3.099,-3.0991,-3.1175,-3.1177,0,0,-3.0801,-3.0815,-3.0853,-3.0863,-3.0854,-3.0845,-3.085,-3.0929,-3.0952,-3.0985,-3.099,-3.0988,-3.0991,-3.0992,-3.1174,-3.1176,0,0,0,-3.0795,-3.0812,-3.0821,-3.086,-3.0871,-3.0847,-3.0852,-3.0948,-3.095,-3.0991,-3.0989,-3.0992,-3.0993,-3.1173,-3.1175,-3.1247,0,0,0,-3.0792,-3.0809,-3.082,-3.0829,-3.087,-3.0911,-3.087,-3.0944,-3.0953,-3.0988,-3.0992,-3.0994,-3.1172,-3.1174,-3.1242,-3.1279,0,0,0,-3.0791,-3.0808,-3.0821,-3.0829,-3.0859,-3.0909,-3.0915,-3.0946,-3.0952,-3.099,-3.0994,-3.1171,-3.1174,-3.1238,-3.1272,-3.1333,0,0,0,-3.0792,-3.0883,-3.0822,-3.0923,-3.0859,-3.0953,-3.0914,-3.0983,-3.1025,-3.0992,-3.1172,-3.1175,-3.1236,-3.1268,-3.1328,-3.1387,-3.1413,0,0,-3.0915,-3.0899,-3.0956,-3.0904,-3.1013,-3.0941,-3.106,-3.1084,-3.1075,-3.1142,-3.1147,-3.1244,-3.1271,-3.1332,-3.1548,-3.1568,0,0,0,-3.1,-3.1042,-3.1068,-3.1108,-3.1129,-3.115,-3.1155,-3.1164,-3.1221,-3.1113,-3.128,-3.1297,-3.1331,-3.1359,-3.1376,-3.1406,-3.1188,-3.1187,-3.1187,-3.1193,-3.1177,-3.1272,-3.1264,-3.1303,-3.1307,-3.1337,-3.135,-3.1321,-3.1361,-3.1382,-3.1515,-3.1548,-3.1561,-3.1592,-3.141,-3.1411,-3.1411,-3.1411,-3.1372,-3.143,-3.1389,-3.1468,-3.1449,-3.1514,-3.1521,-3.1499,-3.1557,-3.1498,-3.1528,-3.1468,-3.1584,-3.161,-3.1416,-3.1415,-3.1415,-3.1414,-3.1414,-3.1499,-3.1523,-3.1533,-3.1589,-3.1634,-3.1621,-3.1679,-3.166,-3.1642,-3.1671,-3.1691,-3.169,-3.1688,-3.1682,-3.1682,-3.1683,-3.1683,-3.1683,-3.1684,-3.1627,-3.1635,-3.1686,-3.1716,-3.1739,-3.1767,-3.1771,-3.1793,-3.1813,-3.1794,-3.1794,-3.1763,-3.1598,-3.1558,-3.1691,-3.169,-3.1689,-3.1688,-3.1687,-3.1818,-3.1771,-3.1851,-3.1875,-3.1907,-3.1954,-3.1927,-3.1974,-3.1989,-3.2018,-3.1979,-3.186,-3.1842,-3.1828,-3.1795,-3.1982,-3.1982,-3.1982,-3.1982,-3.1926,-3.1915,-3.1992,-3.203,-3.2066,-3.205,-3.214,-3.2143,-3.2139,-3.2148,-3.2117,-3.2071,-3.2058,-3.2048,-3.2029,-3.1998,-3.2232,-3.2232,-3.2232,-3.2044,-3.2034,-3.2116,-3.2112,-3.2136,-3.2157,-3.2241,-3.2286,-3.2272,-3.2242,-3.2154,-3.2143,-3.2068,-3.2045,-3.2016,-3.1987,-3.1929,0,0]},{"header":{"parameterUnit":"m.s-1","parameterCategory":1,"la1":30.2992,"la2":30.254,"lo1":-89.0895,"lo2":-89.0443,"dy":0.0025,"dx":0.0025,"nx":19,"ny":19,"refTime":"2026-03-23T09:00:00:Z","depth":0,"parameterNumber":3,"parameterNumberName":"V-component_of_WINDS"},"data":[0,0,0,-4.561,-4.5612,-4.5711,-4.5711,-4.584,-4.5841,0,0,0,0,0,0,0,0,0,0,0,-4.5586,-4.5587,-4.561,-4.5613,-4.5711,-4.5711,-4.584,-4.5841,0,0,0,0,0,0,0,0,0,0,0,-4.5585,-4.5587,-4.5588,-4.5613,-4.5711,-4.5711,-4.584,-4.5763,0,0,0,0,0,0,0,0,0,0,-4.5667,-4.565,-4.5586,-4.5588,-4.5614,-4.5711,-4.5711,-4.576,-4.5768,-4.5798,0,-4.5828,0,-4.5837,-4.585,-4.5851,0,0,0,-4.5608,-4.5643,-4.5666,-4.5588,-4.5615,-4.5711,-4.5665,-4.5764,-4.5774,-4.5809,-4.583,-4.5835,-4.5839,-4.5851,-4.5852,-4.6045,-4.6046,0,0,-4.5602,-4.5605,-4.5659,-4.5672,-4.5661,-4.5662,-4.5668,-4.577,-4.5792,-4.583,-4.5837,-4.5841,-4.5852,-4.5853,-4.6044,-4.6046,0,0,0,-4.559,-4.5602,-4.5622,-4.5667,-4.5685,-4.5665,-4.5672,-4.5787,-4.5794,-4.5839,-4.5843,-4.5853,-4.5855,-4.6043,-4.6045,-4.6104,0,0,0,-4.5586,-4.5595,-4.562,-4.5622,-4.5683,-4.5738,-4.5687,-4.5787,-4.5798,-4.5842,-4.5853,-4.5856,-4.6042,-4.6044,-4.61,-4.6131,0,0,0,-4.5578,-4.5593,-4.561,-4.5622,-4.5665,-4.5736,-4.5748,-4.5789,-4.5801,-4.5851,-4.5856,-4.6041,-4.6043,-4.6096,-4.6125,-4.6183,0,0,0,-4.5568,-4.566,-4.5611,-4.5714,-4.5664,-4.5774,-4.5748,-4.5828,-4.5878,-4.5854,-4.6042,-4.6045,-4.6095,-4.6121,-4.6179,-4.6233,-4.6256,0,0,-4.5685,-4.5674,-4.5735,-4.5694,-4.5813,-4.5758,-4.5885,-4.5926,-4.5926,-4.6005,-4.6009,-4.6101,-4.6125,-4.6182,-4.6383,-4.6402,0,0,0,-4.5773,-4.5816,-4.5847,-4.5897,-4.5933,-4.5965,-4.5987,-4.6003,-4.607,-4.5969,-4.6138,-4.6152,-4.6185,-4.6211,-4.6226,-4.6255,-4.6057,-4.6056,-4.6056,-4.5942,-4.594,-4.604,-4.605,-4.6098,-4.612,-4.6158,-4.6182,-4.6164,-4.6204,-4.6227,-4.635,-4.638,-4.6391,-4.6421,-4.6255,-4.6256,-4.6256,-4.6256,-4.6112,-4.6174,-4.615,-4.6238,-4.6234,-4.6307,-4.6332,-4.6317,-4.6382,-4.6332,-4.6361,-4.6306,-4.6411,-4.6437,-4.626,-4.626,-4.6259,-4.6259,-4.6258,-4.6223,-4.6252,-4.6271,-4.6343,-4.6397,-4.6403,-4.6468,-4.6461,-4.6455,-4.6484,-4.6507,-4.6506,-4.6504,-4.6496,-4.6496,-4.6497,-4.6497,-4.6497,-4.6498,-4.6329,-4.6349,-4.6406,-4.6453,-4.6484,-4.6524,-4.6547,-4.6576,-4.6606,-4.6596,-4.6596,-4.6573,-4.6423,-4.6385,-4.6504,-4.6503,-4.6502,-4.6502,-4.6501,-4.6503,-4.6463,-4.6551,-4.6583,-4.6636,-4.6691,-4.6682,-4.6742,-4.6765,-4.6797,-4.6768,-4.6658,-4.6645,-4.6633,-4.6601,-4.6769,-4.6769,-4.6769,-4.6769,-4.6595,-4.6589,-4.6678,-4.6729,-4.6777,-4.6779,-4.6876,-4.6895,-4.6907,-4.692,-4.6895,-4.6853,-4.684,-4.6834,-4.6818,-4.6788,-4.7,-4.7,-4.7,-4.6701,-4.67,-4.6785,-4.68,-4.6842,-4.6876,-4.6967,-4.7024,-4.7029,-4.701,-4.693,-4.6921,-4.6852,-4.683,-4.6809,-4.6783,-4.6729,0,0]}]]